RH
35 40 39 37 34 30 28 28 30 31 31 33 34 32 30 30 30 30 28 26 26 29 32 34 37 39 37 35 39 43 46 50 53 54 55 55 53 50 51 49 42 37 39 43 44 41 38 36 40 40 40 42 41 43 43 41 42 38 35 32 32 40 43 39 38 34 32 36 36 34 34 36 40 39 34 34 36 37 37 39 41 38 37 39 39 41
34 38 38 37 36 32 28 28 29 30 29 30 31 31 29 27 28 27 24 25 25 26 30 32 34 37 36 34 35 38 40 44 50 53 54 54 51 53 55 53 45 39 40 44 45 44 41 38 41 41 38 38 37 37 38 37 39 38 34 30 28 33 37 34 33 32 29 31 34 32 32 35 40 39 34 33 34 34 33 34 39 40 39 39 39 41
36 33 32 38 38 33 31 28 28 30 29 29 30 30 29 27 25 23 20 22 23 25 27 29 31 33 35 34 33 34 35 40 47 49 52 52 50 53 54 52 51 46 41 42 43 42 40 37 41 42 37 36 35 35 36 35 36 37 34 30 27 27 30 29 29 30 28 28 31 31 32 35 39 39 35 33 33 32 31 31 37 40 39 39 39 38
36 24 23 36 38 33 32 29 27 28 29 30 31 31 30 27 25 22 18 19 22 23 25 28 29 30 32 33 33 34 34 38 44 46 49 50 47 48 48 49 50 46 39 39 41 41 40 37 39 40 37 36 36 35 36 35 34 33 31 29 26 26 27 27 27 29 28 27 29 30 31 35 38 40 38 35 32 29 27 29 35 39 37 36 38 36
33 25 25 33 38 37 34 31 29 27 28 30 32 33 31 27 24 22 18 17 21 23 24 26 28 29 30 32 34 35 33 36 41 43 45 46 47 45 46 49 49 44 39 37 37 40 41 38 36 36 37 37 34 31 31 32 31 28 26 27 27 26 26 27 27 27 27 26 26 28 29 30 34 37 36 32 27 24 23 23 30 38 36 35 35 33
33 34 34 31 35 40 35 31 30 28 28 29 30 32 29 26 23 21 19 16 20 25 24 25 29 30 28 29 33 34 34 36 39 40 39 40 43 45 47 48 49 47 42 38 37 37 38 38 35 34 36 36 30 26 27 28 30 28 25 25 26 25 24 25 25 25 26 24 22 22 23 22 24 26 26 25 23 22 22 20 26 35 36 35 35 31
33 36 37 30 30 36 36 31 30 28 28 27 27 27 26 25 23 21 19 16 18 25 24 23 29 32 28 28 31 32 33 35 37 38 36 35 37 40 44 46 46 47 44 42 40 37 37 37 35 33 33 32 27 24 26 28 30 31 27 25 24 23 22 22 22 23 24 23 20 19 18 19 19 20 22 23 24 25 26 22 23 30 33 34 35 33
35 36 36 31 26 29 34 32 30 28 26 26 25 24 23 24 24 23 21 17 16 21 25 24 25 27 28 28 29 30 31 31 33 35 34 34 35 36 40 42 43 45 42 42 40 35 35 37 33 31 30 28 26 26 26 27 29 30 28 25 24 23 21 21 20 20 20 19 20 18 18 19 19 20 22 24 25 27 30 27 22 24 28 29 31 33
36 36 33 29 23 24 29 30 30 28 26 25 24 24 23 22 23 24 23 20 16 17 23 25 24 27 29 26 26 28 28 28 30 31 32 34 35 35 35 36 39 41 39 40 39 32 32 36 34 30 29 28 29 28 26 26 29 30 28 26 25 23 21 20 20 20 19 18 19 18 18 19 19 19 20 23 24 23 27 29 22 20 27 28 27 30
33 32 28 24 20 20 22 25 27 26 25 24 23 23 24 23 21 20 21 19 16 17 21 23 24 29 30 26 25 27 27 27 28 29 30 31 32 32 31 32 36 39 36 37 38 32 30 35 36 32 31 33 33 30 27 27 28 30 30 27 26 24 21 19 18 19 19 18 19 18 18 18 18 19 17 19 21 17 20 25 22 19 25 27 25 27
29 27 24 20 18 17 18 20 22 22 22 22 21 23 23 21 18 17 16 15 16 19 18 18 21 27 31 28 25 26 26 27 27 28 28 29 30 30 28 29 33 35 34 34 35 30 28 34 38 36 33 35 36 34 31 29 29 31 30 27 26 25 23 19 17 17 18 18 18 18 18 18 17 18 16 15 16 14 13 17 18 18 21 22 22 22
27 25 23 20 18 17 17 19 20 20 20 19 20 22 21 17 14 14 14 13 18 21 16 14 16 21 27 26 24 24 24 24 25 27 28 29 30 29 28 29 31 33 33 32 33 31 28 30 37 40 36 36 39 37 33 31 28 29 31 28 25 25 24 21 17 16 17 17 17 17 18 18 17 17 15 13 13 13 10 11 12 13 15 19 22 21
26 24 22 21 19 17 17 19 20 20 19 19 20 20 20 18 15 17 18 16 18 18 14 14 14 15 17 17 18 21 23 23 23 24 27 28 29 29 28 30 31 32 32 32 33 33 29 27 33 39 38 37 39 37 34 32 27 24 27 27 24 24 24 22 18 16 15 16 16 17 17 17 17 16 15 13 12 12 11 10 10 10 10 13 18 19
23 23 22 21 19 18 18 17 18 19 18 19 19 18 18 19 20 22 21 17 17 16 12 12 13 14 14 13 14 16 19 22 22 22 25 27 27 27 27 28 29 30 30 30 32 34 30 26 29 35 36 35 36 37 35 34 31 25 22 22 22 21 22 22 20 16 14 14 15 16 16 16 16 15 14 12 10 10 11 10 9 10 9 7 10 13
20 22 21 20 19 19 18 17 17 17 17 18 18 17 15 16 19 20 18 16 16 15 12 10 11 12 13 13 13 13 15 17 19 22 25 25 24 26 26 26 27 28 28 28 31 33 30 26 27 31 33 33 36 37 35 33 33 29 23 19 18 18 19 21 21 18 14 12 13 15 15 16 16 15 14 12 10 9 10 9 7 8 8 7 8 10
17 19 19 19 19 19 18 17 16 16 16 16 16 15 14 13 14 14 14 12 12 16 16 12 11 11 11 12 12 13 14 14 15 18 22 24 23 25 28 27 26 27 27 27 30 33 31 27 27 28 29 31 34 36 34 32 32 29 25 20 16 15 16 17 19 18 15 12 12 13 14 14 14 14 14 12 10 9 8 8 7 6 7 7 8 9
16 17 19 19 18 18 18 17 16 16 16 15 14 14 13 13 13 12 13 11 11 19 20 14 11 11 11 11 11 11 12 12 12 14 19 22 22 24 27 27 25 26 26 26 27 32 33 31 28 27 27 29 33 34 30 27 27 27 27 24 18 14 15 16 17 17 15 13 11 11 12 13 14 14 14 12 10 9 8 7 6 6 7 8 9 9
18 18 18 19 18 18 18 17 16 16 16 14 13 13 13 14 13 13 16 17 18 21 19 14 12 12 12 12 11 10 11 11 11 13 15 18 22 24 25 25 25 25 25 24 26 31 34 33 29 26 27 29 31 31 28 25 25 27 29 28 23 17 13 14 15 15 14 12 11 11 11 12 13 13 13 13 11 9 8 7 7 7 7 8 9 9
18 18 17 17 18 17 17 18 17 16 17 15 13 13 13 15 13 12 14 20 24 24 18 14 12 11 11 11 10 9 9 9 10 11 12 15 21 24 24 26 26 25 25 25 30 32 30 30 29 26 27 30 30 31 30 28 28 28 30 30 28 21 16 15 17 16 15 13 11 10 11 11 12 13 13 13 13 11 9 8 8 7 7 8 9 10
21 20 18 17 17 17 16 17 17 17 17 15 14 13 13 14 13 11 12 15 20 25 22 18 14 11 10 10 9 9 9 8 9 11 11 12 17 22 25 27 26 26 26 26 29 30 26 26 27 26 28 30 30 32 33 32 31 30 30 31 30 25 21 20 20 19 17 14 12 10 10 11 12 12 13 13 13 11 9 9 9 8 8 9 9 10
23 20 20 19 16 16 16 17 17 17 18 16 15 14 13 13 12 11 12 11 14 23 26 24 22 15 9 9 9 9 9 9 9 10 12 12 14 17 22 24 24 25 25 24 25 26 25 26 26 26 29 31 31 33 33 32 32 32 32 32 31 26 23 21 19 19 17 15 13 11 10 10 11 12 12 13 13 12 10 9 9 9 9 10 10 11
34 24 20 20 18 16 15 16 17 17 17 16 15 15 13 12 11 12 16 13 10 16 20 23 27 18 10 11 11 10 10 9 9 9 11 12 13 15 19 22 24 23 21 22 23 24 26 25 24 25 28 29 30 31 31 31 32 31 31 31 27 22 21 20 18 16 15 14 13 12 11 10 11 11 12 12 12 12 11 10 10 10 10 11 11 12
49 33 23 22 20 18 15 15 17 17 17 17 16 14 12 11 10 12 19 17 11 12 12 15 20 16 11 12 11 10 11 10 9 10 11 12 12 15 19 22 25 23 20 21 22 25 27 25 23 23 24 25 25 27 29 28 29 30 30 30 25 18 18 20 17 15 13 12 12 12 12 11 11 11 12 12 12 12 11 10 10 10 11 11 12 12
45 33 25 23 20 19 18 14 16 17 17 17 16 14 12 11 10 11 15 15 12 13 11 12 17 14 11 13 10 10 12 11 11 12 12 12 12 14 17 20 25 26 24 24 24 26 28 26 23 22 22 22 23 27 29 28 28 29 30 31 27 23 24 24 19 15 12 10 10 10 11 11 11 11 11 11 12 11 11 10 10 10 11 12 12 13
52 44 36 34 26 22 22 18 16 18 18 17 17 15 13 12 11 11 12 12 13 12 10 14 18 13 10 13 12 12 12 12 13 13 12 12 12 13 14 15 20 25 26 26 27 28 27 24 23 22 23 24 25 27 30 29 29 29 29 30 30 30 32 31 27 20 13 9 9 9 9 9 10 11 11 11 11 11 11 10 10 10 11 12 12 12
59 53 49 50 42 32 30 25 19 18 18 18 17 15 14 12 12 12 11 12 14 13 10 11 14 12 11 13 13 13 13 13 13 12 12 12 12 15 19 16 13 17 21 24 26 27 24 21 22 23 24 26 25 25 26 27 28 27 27 28 29 30 32 33 33 28 20 13 9 8 8 8 8 9 10 11 11 11 11 11 10 11 11 11 12 12
51 50 48 51 48 38 34 30 23 18 18 19 17 16 14 12 12 12 11 12 13 13 12 9 10 13 13 12 12 12 12 12 13 12 12 13 12 15 22 21 14 12 17 22 25 25 24 22 22 23 25 24 23 22 23 23 24 24 25 26 27 29 30 32 33 32 28 21 13 9 7 7 6 7 8 9 10 11 11 11 10 10 11 11 12 12
52 50 46 46 45 39 34 32 27 20 17 18 17 16 14 12 12 12 11 12 12 15 16 11 10 14 13 12 13 12 11 12 13 12 12 13 11 12 18 20 15 15 20 24 25 25 26 26 24 26 28 25 22 22 21 20 19 19 19 21 24 26 28 30 32 33 33 30 24 16 10 7 6 5 5 7 8 9 9 9 10 10 11 11 12 12
57 52 48 47 45 39 32 31 30 24 18 17 17 16 14 12 12 11 11 11 10 14 17 12 12 15 13 13 13 10 10 13 14 13 14 15 12 11 15 18 17 21 26 27 26 25 27 29 29 30 31 26 22 22 20 16 16 16 17 17 20 22 24 27 30 31 32 33 32 27 19 12 8 6 6 6 6 7 7 7 8 9 10 10 11 11
60 53 48 49 46 39 33 30 30 28 22 18 17 16 15 13 11 12 12 12 11 11 13 12 13 15 14 14 14 10 10 15 17 16 16 16 14 14 17 20 22 27 29 27 27 28 30 32 32 31 29 26 24 22 18 16 16 16 16 16 17 18 20 22 25 28 30 30 32 33 29 22 15 10 8 7 7 6 6 7 8 8 9 9 10 10
60 54 48 48 46 40 34 31 30 30 26 23 20 16 15 14 12 11 11 12 12 11 13 14 14 15 15 15 16 14 14 17 20 21 21 21 22 23 26 29 29 29 28 28 29 31 33 34 31 30 30 28 27 24 19 15 16 16 15 16 16 16 17 18 19 22 25 27 29 32 33 31 26 19 13 11 10 9 8 8 8 9 9 10 10 11
58 55 47 46 48 41 33 31 32 30 26 26 25 20 18 16 12 12 12 11 12 12 14 17 16 15 15 15 16 18 19 21 21 22 25 26 27 29 31 32 32 31 30 30 31 31 30 29 27 28 31 30 30 31 24 16 15 16 15 15 15 15 15 16 16 17 19 22 25 28 31 33 32 28 22 18 16 14 12 11 11 11 12 12 13 14
59 58 47 45 51 47 39 37 34 31 31 31 28 22 20 19 15 11 10 11 12 12 14 17 15 14 14 14 15 19 21 22 21 21 23 23 25 29 31 31 30 30 29 28 29 30 31 32 33 32 31 33 36 35 26 16 14 16 15 15 15 15 15 15 15 15 16 17 19 22 26 30 33 33 30 25 22 20 18 16 15 15 15 15 16 17
59 57 48 46 50 49 45 41 36 37 40 34 25 20 19 20 18 13 11 11 11 12 14 17 18 16 15 15 15 18 21 21 21 21 21 21 22 26 30 29 24 21 22 19 18 22 27 32 34 31 27 30 34 32 23 16 16 16 15 15 15 14 14 15 14 15 15 16 17 17 20 25 28 32 33 32 29 26 24 22 21 19 19 20 21 19
58 53 46 44 48 48 44 42 44 47 41 29 23 21 20 22 21 15 10 10 12 13 14 16 19 19 17 16 16 17 20 22 22 21 20 20 21 22 26 28 25 26 30 28 24 24 24 23 23 22 20 19 19 19 18 16 15 15 14 13 13 12 12 13 14 15 15 16 17 16 17 20 23 27 31 33 33 31 29 27 25 25 24 23 22 21
56 51 47 41 46 51 47 46 48 43 32 25 25 25 23 23 21 17 20 32 38 33 23 16 18 20 19 19 20 20 21 23 25 24 22 20 21 21 24 26 25 28 33 36 35 33 31 32 34 34 30 22 13 11 14 16 14 12 11 11 10 11 11 12 13 14 16 16 16 17 17 18 19 23 27 30 33 34 33 31 29 28 27 26 26 26
51 48 45 40 46 51 48 46 41 33 32 34 36 36 33 28 23 22 36 50 46 33 26 20 18 19 21 23 23 23 23 24 25 25 24 23 21 20 24 25 24 24 26 29 31 30 31 39 43 43 41 33 19 12 13 16 15 12 11 11 11 11 11 12 13 13 15 17 16 16 17 18 18 21 24 27 30 32 34 35 32 30 29 29 28 27
49 44 40 39 43 45 48 51 43 40 48 49 44 39 31 29 28 23 35 50 40 26 30 31 24 23 24 24 24 25 26 26 27 27 26 26 24 22 24 26 24 25 25 25 28 30 32 36 35 34 38 39 31 21 16 15 14 13 12 11 10 11 11 11 12 13 14 16 17 17 17 18 18 20 22 25 26 28 32 34 35 35 34 32 31 29
47 42 36 35 39 41 47 54 51 52 58 54 44 34 28 33 30 20 39 66 59 43 41 38 32 30 26 25 27 26 24 27 34 34 28 27 27 23 23 26 25 26 26 23 23 27 30 32 29 26 30 35 34 27 18 13 13 12 11 10 10 10 10 10 11 11 12 14 16 18 18 18 19 20 22 24 25 27 29 31 33 36 36 36 36 34
47 44 37 34 38 40 43 48 52 61 66 58 46 37 33 33 24 27 64 92 80 64 55 40 35 35 29 26 28 26 28 39 49 46 38 38 39 27 20 23 24 25 30 29 26 25 25 25 25 24 24 28 30 25 16 12 13 12 11 11 10 9 10 10 10 10 11 12 14 16 18 18 19 20 22 24 26 27 28 29 31 33 35 37 37 37
44 42 40 37 36 39 44 46 50 60 63 59 55 47 34 30 36 59 92 102 89 82 70 46 40 46 38 30 32 41 53 60 63 58 50 51 51 35 23 25 25 24 28 31 32 34 30 26 24 22 21 22 23 20 14 11 13 12 11 11 10 10 10 10 9 9 9 11 13 15 17 18 19 20 22 25 27 28 28 28 29 30 32 34 36 37
43 41 41 38 36 39 42 41 48 61 62 58 64 57 35 37 68 94 102 99 93 87 73 57 57 65 57 39 37 53 66 64 62 63 56 48 45 35 30 35 36 33 31 28 31 39 38 31 24 20 19 18 17 14 12 11 12 13 12 11 10 10 10 9 9 10 9 9 11 14 16 17 17 18 20 23 26 28 28 29 29 29 31 32 34 36
44 39 37 37 38 41 44 49 64 78 71 60 65 66 55 64 93 104 99 100 95 82 75 73 72 74 73 57 42 48 57 56 56 58 51 40 36 35 34 35 34 34 33 29 29 35 37 33 28 21 17 15 14 12 11 12 13 12 12 12 11 10 10 10 10 10 9 9 10 12 14 15 15 15 17 20 24 27 29 29 29 30 30 31 32 34
53 50 51 48 44 48 58 73 85 87 79 74 78 83 86 92 100 100 99 103 96 82 81 82 75 72 76 70 59 55 54 52 49 47 42 37 34 33 32 29 26 26 28 29 28 28 30 31 30 24 18 14 13 13 12 12 12 12 12 12 11 10 10 10 10 10 10 9 9 10 12 13 14 15 15 17 20 24 27 29 30 30 31 31 32 32
70 72 74 68 63 65 72 82 87 82 80 83 84 87 94 97 96 97 100 102 98 91 87 82 77 74 71 66 64 61 56 53 50 45 40 35 32 31 29 27 25 23 22 25 26 25 25 26 24 21 17 14 14 14 13 13 13 12 12 12 11 11 10 10 10 10 10 10 9 9 10 11 13 14 15 16 18 20 23 27 30 30 31 31 31 32
73 74 74 72 71 70 66 70 79 80 79 80 79 79 85 87 86 90 96 100 100 97 90 82 79 77 71 64 61 58 55 54 52 47 43 37 34 33 29 25 24 22 21 26 29 28 28 27 22 18 16 15 15 14 14 14 13 13 13 12 12 11 11 10 10 10 11 11 10 10 9 9 11 13 13 14 15 17 20 24 27 30 31 31 31 31
69 65 67 70 68 64 62 66 72 71 69 72 74 75 77 77 76 79 89 98 99 93 87 80 74 71 69 64 58 54 52 50 47 44 42 38 34 32 28 24 22 20 21 25 27 26 26 24 19 16 15 15 15 14 14 14 13 13 13 13 13 12 12 11 11 10 10 10 10 11 10 9 10 11 12 13 14 15 17 19 23 26 27 29 30 30
70 62 63 69 69 67 70 71 70 65 62 62 65 67 70 72 72 73 80 91 95 89 81 72 66 63 61 56 52 49 46 43 42 39 36 34 32 29 26 24 23 21 21 22 21 21 20 19 17 15 15 14 14 14 14 14 14 14 13 13 13 12 11 11 11 10 10 10 10 10 10 10 9 9 11 13 14 13 13 15 19 23 25 27 28 29
75 70 69 71 68 66 67 67 67 66 61 61 64 67 67 66 66 66 69 75 83 85 80 71 62 57 53 49 46 44 39 36 36 35 32 30 29 27 25 24 23 22 22 21 20 19 19 18 18 16 15 15 14 14 14 14 13 13 13 13 13 12 11 11 11 10 10 10 9 10 9 9 9 9 10 12 13 12 12 13 15 18 21 24 26 28
78 73 71 70 68 67 66 66 69 69 65 67 73 76 73 67 62 60 59 59 63 68 70 67 60 53 48 45 43 40 36 33 31 30 29 26 24 24 24 22 21 21 21 20 19 19 18 18 18 17 16 16 15 15 14 14 13 13 13 13 13 12 11 11 11 11 10 10 10 10 9 9 10 10 10 12 14 14 14 15 16 17 20 22 25 27
82 74 70 68 65 64 62 63 66 68 69 68 66 66 66 60 52 51 52 51 49 49 51 54 56 52 47 43 41 38 35 32 31 29 28 26 24 23 21 21 21 20 20 19 19 18 18 17 17 17 17 16 16 16 15 15 14 13 13 13 13 12 12 12 11 11 11 11 12 12 13 14 15 14 13 14 16 17 18 19 19 20 21 22 24 26
Wind_Speed
26 27 33 39 39 37 36 35 32 26 23 23 24 24 23 24 23 22 23 20 19 29 31 24 23 23 22 21 25 28 24 20 20 22 25 24 21 20 19 18 16 14 15 14 16 19 19 20 21 20 21 22 21 21 21 20 21 21 21 21 20 21 22 21 20 22 22 20 20 19 17 17 16 15 15 14 13 12 11 10 8 8 8 8 7 7
26 33 40 41 37 33 32 32 30 27 26 26 27 27 24 24 25 22 21 22 23 27 26 24 24 24 26 26 24 25 23 22 25 25 26 27 23 22 23 21 16 14 15 17 17 20 20 21 23 22 21 21 21 21 21 20 21 21 21 21 21 21 22 20 19 20 20 19 18 17 16 16 16 15 15 14 13 12 11 10 9 9 8 8 8 8
30 40 44 37 32 30 28 29 30 29 28 28 29 28 29 28 25 21 18 20 24 26 21 22 25 25 28 28 25 24 25 24 27 28 29 29 25 24 25 22 19 17 17 20 20 20 22 22 23 25 23 21 20 20 21 21 21 22 22 22 22 21 21 20 18 19 19 18 17 17 16 16 16 15 15 15 14 13 12 10 10 10 9 9 8 8
37 41 40 33 29 29 30 29 29 31 30 30 29 29 33 32 26 23 19 19 24 25 20 21 24 26 27 26 26 27 27 26 27 26 28 29 25 25 26 23 20 19 18 21 23 22 22 23 24 26 25 23 22 21 22 22 22 22 22 22 21 21 21 20 18 18 18 19 19 18 18 17 17 17 16 16 16 15 13 12 11 11 10 10 9 9
40 34 28 31 31 30 32 31 30 32 32 33 32 31 34 33 30 27 21 20 26 28 23 21 22 26 28 24 27 33 29 26 29 27 26 27 24 23 25 24 22 19 16 18 22 24 24 24 23 24 24 24 23 21 21 22 22 21 21 22 21 20 21 20 19 19 19 20 21 20 20 20 21 20 20 18 17 15 14 12 11 11 11 10 10 10
42 31 19 25 32 32 32 33 34 33 32 34 34 33 33 31 30 27 23 20 23 27 25 23 17 18 27 26 27 34 29 27 32 32 30 28 25 25 25 26 25 20 16 14 17 22 24 24 23 22 24 24 22 20 19 20 21 21 19 21 21 21 21 21 20 20 20 20 21 21 21 20 21 20 19 17 15 14 13 11 12 13 12 11 11 11
42 35 23 21 29 33 34 34 35 34 32 33 33 33 33 30 29 28 26 25 19 26 28 28 19 13 24 30 28 31 30 30 37 37 35 31 28 27 27 28 27 23 20 16 15 19 24 25 23 22 23 22 20 19 19 19 21 22 20 20 21 21 21 22 21 21 21 20 21 21 20 19 18 18 16 15 14 13 13 12 13 14 14 13 12 11
39 37 31 26 28 32 36 37 35 35 35 33 29 29 31 32 32 31 30 28 20 24 30 33 29 18 22 30 29 31 32 32 38 40 37 34 31 30 28 27 28 24 22 20 16 18 24 26 23 21 20 18 17 18 19 20 21 22 21 19 19 20 21 21 22 22 21 20 20 20 20 19 18 17 16 15 15 14 13 13 14 14 14 14 13 12
36 38 37 33 31 33 37 38 35 34 36 33 26 24 27 30 32 33 33 31 26 18 22 33 35 18 16 29 29 30 34 32 34 37 37 37 33 32 30 27 28 26 21 20 18 16 22 26 23 21 19 18 18 18 18 19 20 21 20 19 19 20 20 21 22 23 23 21 20 20 20 19 18 17 17 17 17 16 14 14 14 15 15 15 14 13
29 34 35 34 36 36 34 33 33 34 35 32 26 23 24 25 29 31 31 33 30 18 12 27 36 19 12 29 31 29 35 35 34 34 35 38 36 34 34 31 29 28 23 21 19 16 19 24 24 22 21 21 20 18 18 18 21 22 22 21 20 20 20 21 22 23 23 23 22 21 20 19 18 18 17 17 18 18 16 15 14 14 14 15 15 14
29 27 29 35 38 35 31 29 30 32 31 29 26 26 25 24 27 28 30 32 25 13 12 20 31 24 12 25 36 35 36 36 36 37 35 37 38 38 37 35 32 31 27 23 20 18 18 21 25 25 24 23 21 20 19 20 21 23 24 22 20 21 21 21 22 23 23 24 23 22 20 19 19 18 18 17 18 18 16 15 14 12 13 15 15 15
32 27 28 34 35 33 30 29 29 29 30 30 27 28 26 22 24 24 27 29 15 7 19 25 24 23 14 19 34 37 37 36 36 39 39 38 39 40 39 37 35 32 28 24 22 21 20 22 26 28 27 26 24 22 22 21 22 23 24 23 21 21 22 22 23 23 23 24 24 23 22 21 20 19 19 18 17 17 16 14 14 13 13 14 15 16
36 38 32 28 31 34 32 30 29 28 32 32 30 31 23 12 12 13 12 16 10 10 23 27 22 21 18 20 28 32 37 39 36 33 37 42 42 41 41 39 36 32 27 23 24 25 23 23 27 29 29 29 27 25 23 22 21 22 23 23 22 21 22 22 23 23 24 25 25 24 23 22 21 20 19 18 17 17 16 15 15 15 13 13 14 15
32 36 37 32 31 35 36 34 31 31 34 35 34 34 24 9 5 6 4 4 7 15 25 27 23 20 22 25 25 24 30 35 34 29 32 41 44 42 42 40 37 34 29 26 26 27 25 24 25 28 28 27 26 26 25 22 20 20 20 22 22 21 21 22 22 22 23 24 24 24 24 23 22 21 20 19 18 17 17 17 16 15 13 12 13 14
24 26 39 43 34 32 38 38 31 30 34 37 37 34 30 22 10 4 4 3 2 8 21 27 21 14 18 27 28 22 22 27 29 29 31 37 40 41 41 40 39 36 31 29 29 28 25 22 23 26 25 24 24 25 25 23 21 20 20 20 20 20 21 22 22 22 23 24 24 24 24 24 23 22 20 19 18 18 18 17 16 15 14 12 12 13
26 26 36 41 35 30 34 38 33 28 31 35 36 33 33 33 22 7 6 12 8 2 11 23 21 15 16 22 26 26 26 26 24 26 34 37 36 39 43 42 40 38 33 30 29 29 26 22 20 23 23 22 23 25 25 24 22 21 20 19 19 20 21 21 21 22 22 23 24 25 25 25 24 23 22 21 20 19 18 17 16 15 14 13 12 13
25 28 28 30 37 35 31 35 37 31 28 31 37 38 34 32 29 16 8 15 13 2 7 17 19 22 23 21 21 25 30 31 26 23 30 37 36 39 44 45 42 38 35 32 28 28 29 26 22 21 22 23 24 25 23 22 21 20 20 19 19 20 21 22 22 21 22 23 25 26 26 26 25 24 22 21 19 19 18 17 16 15 15 14 14 13
23 25 25 26 35 40 33 31 36 35 29 31 38 40 31 24 28 25 10 8 10 3 8 19 23 24 25 24 25 27 29 32 33 29 28 31 37 42 44 45 43 38 36 34 31 27 28 30 27 22 22 23 24 23 21 19 20 21 21 20 20 21 22 22 22 22 22 24 25 27 27 26 25 24 22 20 19 19 19 18 17 17 16 16 15 15
30 22 22 29 33 37 37 33 36 39 36 32 34 37 32 23 24 27 14 5 7 4 5 18 27 27 28 31 32 30 31 31 32 35 34 31 34 42 44 42 40 38 36 35 33 28 26 28 28 23 21 23 24 24 23 22 22 22 21 21 21 21 22 23 24 24 23 24 25 26 26 26 25 24 22 21 20 21 21 20 18 18 17 16 16 16
39 26 17 27 34 34 38 39 40 43 42 36 30 34 38 30 24 28 22 11 6 3 4 10 15 20 29 35 34 31 31 31 29 31 36 37 34 38 43 43 41 39 36 32 29 28 27 27 25 21 19 21 24 25 27 26 25 23 21 21 20 21 23 25 27 27 25 25 25 25 26 26 25 24 23 22 22 22 22 21 20 18 17 17 17 16
37 36 24 25 32 37 40 43 44 45 45 42 35 33 38 33 26 25 24 23 14 2 2 6 4 12 23 28 32 32 28 30 33 30 32 38 37 36 39 41 40 38 33 27 24 24 27 25 22 20 18 19 23 26 28 27 26 24 22 21 19 20 23 25 27 28 27 26 25 26 27 27 26 25 24 24 24 23 23 22 21 20 19 18 18 17
17 31 35 33 28 35 44 46 45 43 44 46 40 33 36 35 29 19 14 25 27 12 6 5 4 12 19 19 26 31 27 28 34 33 31 33 34 35 39 38 36 34 28 24 24 23 24 23 20 20 20 20 23 27 28 27 26 25 23 20 19 19 22 24 25 26 26 26 26 26 27 27 27 27 26 25 25 24 24 24 23 22 21 20 19 17
19 19 32 38 31 28 37 42 42 40 40 44 40 33 34 38 36 23 12 21 28 23 19 13 7 8 10 12 22 29 27 27 31 31 29 31 30 32 39 39 36 35 29 24 26 26 23 21 19 22 23 23 25 26 27 27 25 24 23 21 20 20 21 22 23 23 24 25 25 25 26 27 28 29 28 28 27 25 25 25 24 23 23 21 19 19
11 12 20 33 37 32 32 38 42 40 38 41 43 38 33 36 39 30 18 21 25 24 22 12 5 7 7 5 15 27 26 27 28 24 22 29 31 29 35 37 35 37 33 27 27 28 25 22 21 23 26 25 25 25 25 26 25 24 24 23 21 19 19 20 20 21 23 23 24 24 25 27 28 29 30 29 28 27 26 25 25 25 24 22 21 20
13 10 10 16 21 23 24 28 37 42 41 40 43 43 37 33 35 32 24 21 22 25 27 12 3 10 6 7 16 23 23 23 22 17 17 27 32 28 29 33 30 30 31 29 29 30 27 23 23 25 26 25 23 23 25 28 27 25 24 24 22 20 20 20 20 20 21 21 22 23 25 27 28 30 30 30 29 28 26 26 26 25 24 23 22 21
21 17 14 12 8 7 7 10 26 43 45 40 40 42 40 34 32 33 29 22 17 21 29 21 8 11 11 8 19 22 19 19 16 16 20 24 29 27 26 31 32 29 29 31 31 31 27 24 24 26 25 23 21 22 25 27 27 25 25 25 24 22 22 22 21 21 20 20 21 22 24 25 28 30 31 30 29 28 27 27 26 26 25 24 23 22
16 20 17 16 16 11 5 4 15 40 45 37 35 37 40 39 34 34 33 26 18 19 27 27 18 14 14 14 16 15 12 16 20 22 21 20 27 31 27 29 33 31 31 34 33 32 29 25 23 24 25 23 21 22 23 23 23 24 25 25 24 23 23 23 23 22 21 20 20 21 22 23 25 28 29 30 29 28 27 27 27 26 25 23 23 23
18 18 16 17 17 18 16 9 6 32 46 41 35 34 38 42 38 34 34 30 22 16 20 26 22 17 17 17 15 10 8 16 22 24 20 18 27 32 27 29 33 32 35 37 34 32 31 27 23 22 23 24 23 22 21 20 20 22 23 23 23 23 23 24 25 26 24 22 21 20 20 21 22 24 26 28 28 28 28 27 27 26 24 24 24 23
25 16 11 16 16 18 23 11 3 11 33 42 39 35 35 42 43 38 33 33 29 20 16 22 23 19 19 16 13 11 15 20 22 21 18 19 28 27 22 29 37 36 38 38 34 31 30 29 25 21 21 23 23 22 21 19 20 20 21 21 21 21 22 24 26 27 26 25 23 21 19 19 21 22 24 26 27 27 27 26 26 26 25 24 23 22
26 18 15 18 15 14 19 17 5 5 12 26 36 39 35 36 43 43 33 28 30 25 18 20 24 21 16 11 10 15 22 24 22 19 17 20 24 23 23 33 41 39 39 38 34 30 27 27 25 22 22 22 22 22 20 19 19 19 19 18 17 19 20 22 25 27 27 27 26 23 21 20 20 21 23 24 25 25 25 25 25 25 24 24 22 22
25 23 20 20 13 10 16 19 13 9 7 9 23 36 37 33 38 43 38 28 26 25 23 23 24 21 17 13 15 20 25 26 24 21 20 20 20 21 29 40 42 40 40 37 32 28 26 26 26 25 24 25 25 24 21 20 20 20 19 18 17 18 19 20 22 25 27 27 27 26 25 23 22 21 23 24 24 24 24 24 24 24 24 23 22 21
24 26 26 26 18 9 15 24 15 11 11 9 10 23 31 30 32 41 42 33 26 26 25 23 22 23 25 25 25 26 27 27 26 26 28 26 21 22 31 37 38 39 39 34 28 25 25 25 27 27 26 27 28 27 24 22 22 21 21 21 19 19 19 19 19 21 23 25 25 26 27 27 25 23 23 23 23 23 23 24 24 24 24 22 21 20
22 26 29 27 21 13 8 23 19 13 9 12 11 17 23 17 20 37 43 35 28 27 26 24 26 30 29 27 27 28 28 28 26 27 30 27 23 23 26 27 27 28 27 26 24 24 24 25 26 26 26 27 27 25 24 23 24 24 23 23 22 21 20 19 19 18 19 20 22 24 27 28 29 27 25 24 23 23 23 24 25 24 23 22 21 20
21 23 25 22 19 16 2 13 17 11 5 7 9 19 21 6 6 26 42 37 28 26 27 24 22 25 27 24 25 28 25 23 25 28 30 28 26 26 25 23 21 19 17 19 21 22 22 24 25 24 22 23 23 23 24 26 26 26 25 24 24 23 21 20 20 19 17 16 18 20 24 27 30 30 29 27 25 24 24 25 25 24 23 22 21 21
22 22 22 21 19 17 6 5 8 6 5 9 12 19 16 1 5 16 38 39 27 22 27 27 22 24 30 29 27 29 27 22 22 26 29 27 24 25 27 27 23 18 18 19 19 19 20 21 22 20 18 18 19 20 23 26 28 28 26 25 24 23 22 21 20 19 17 16 16 16 18 22 26 30 31 30 29 28 27 26 25 25 24 23 23 23
20 19 21 20 14 12 8 3 6 4 5 12 15 12 6 4 3 16 27 18 7 7 19 31 31 27 26 27 27 30 29 23 21 24 25 24 22 22 25 27 23 17 18 20 17 16 19 21 21 20 19 19 20 21 20 20 23 25 26 25 25 23 22 21 21 20 18 18 18 17 16 16 19 24 29 32 33 32 30 28 27 26 26 25 25 24
14 15 17 17 10 11 14 8 6 4 4 4 2 3 3 7 1 13 21 18 8 11 14 25 36 33 26 25 27 29 28 24 23 23 22 24 27 25 21 20 20 17 16 18 15 12 15 17 16 16 17 18 19 21 22 20 20 22 22 23 23 22 21 20 19 19 18 18 19 18 17 16 15 17 20 27 32 34 33 31 29 28 27 27 27 27
13 13 14 14 10 12 18 11 5 4 3 10 13 3 4 6 1 11 18 23 15 18 17 22 31 33 31 31 28 26 26 26 25 24 23 24 26 26 20 18 19 18 16 16 15 13 14 17 15 12 14 16 16 17 18 20 21 22 22 21 20 19 19 18 17 17 17 18 19 19 18 16 15 14 15 18 23 30 34 34 32 30 29 29 29 28
15 15 13 13 15 15 15 10 2 1 6 13 9 6 8 6 5 15 14 24 21 23 25 27 31 32 33 34 30 27 28 28 25 25 25 24 23 25 25 22 20 17 15 17 18 17 17 18 16 14 15 18 18 17 17 18 19 21 22 22 20 19 18 17 15 15 15 16 18 20 20 18 16 15 14 13 15 20 29 34 35 34 32 31 31 30
13 14 13 12 13 13 12 9 6 6 9 11 5 8 8 5 11 15 9 14 18 24 24 25 30 32 33 34 31 30 31 29 26 26 27 25 23 24 25 24 21 18 15 17 20 21 22 20 20 21 22 21 22 22 21 20 20 20 21 21 21 21 19 17 16 14 14 15 17 19 20 20 18 15 14 14 14 15 21 29 35 36 35 34 33 32
11 13 13 13 12 12 10 8 5 6 7 9 6 2 11 11 8 13 11 8 13 20 21 26 31 30 31 36 36 34 33 31 29 28 28 26 23 21 22 21 21 21 20 20 20 21 22 21 22 25 27 26 27 26 24 23 22 21 21 21 21 21 19 19 18 16 15 16 17 19 21 21 19 18 16 16 16 16 18 23 30 34 36 36 35 35
8 10 12 14 14 12 10 7 5 6 8 9 9 3 10 13 11 17 15 10 10 13 17 26 29 26 28 35 39 37 34 32 31 28 26 26 24 23 23 21 20 21 23 24 22 20 20 22 23 24 24 25 28 28 27 25 24 23 23 23 23 22 22 22 21 20 19 18 18 19 21 21 20 19 18 18 19 19 20 21 25 30 34 36 36 36
5 6 8 10 11 10 9 6 3 5 10 11 9 7 6 13 15 15 13 12 13 15 16 21 26 25 24 29 34 34 32 29 27 24 23 24 25 24 23 21 18 18 22 24 23 21 21 22 22 22 22 24 26 28 28 28 27 26 26 25 24 25 25 24 24 23 22 21 20 20 20 20 20 19 19 20 21 22 23 23 23 27 30 34 36 37
1 2 3 3 4 6 7 7 7 6 10 10 9 16 18 12 7 9 11 12 14 16 14 17 23 24 22 24 28 29 28 28 26 25 24 24 24 22 20 18 16 18 20 21 21 21 23 24 24 22 22 24 25 26 28 30 30 30 29 28 27 26 27 26 26 25 25 24 23 22 21 21 21 21 20 20 21 24 26 25 25 27 29 32 35 36
4 5 4 3 4 5 4 6 9 9 8 6 7 15 16 9 1 7 10 10 12 15 14 14 18 20 21 24 25 25 25 26 25 25 25 24 23 20 18 19 20 22 23 23 22 22 24 25 25 24 23 24 24 24 26 29 31 32 31 30 29 29 29 29 28 27 27 27 26 25 24 24 24 23 22 21 22 25 27 27 28 29 31 32 33 34
5 5 5 4 3 1 4 3 5 5 2 1 1 4 5 2 2 7 11 10 10 11 13 13 13 15 17 20 23 24 24 23 22 21 22 23 22 22 23 25 27 27 27 26 25 26 26 26 25 24 23 23 24 24 24 26 28 30 31 31 30 30 30 30 29 29 28 28 28 28 26 26 26 25 24 23 23 25 26 28 30 32 32 33 33 33
5 5 6 5 4 4 5 4 2 6 7 3 3 4 7 9 7 6 9 10 9 9 11 11 11 12 14 14 16 18 18 17 17 17 19 22 23 24 25 25 26 26 25 25 27 28 28 27 26 25 24 23 24 25 25 24 25 27 30 31 30 30 30 31 30 30 29 29 30 30 28 28 28 27 26 26 25 25 26 27 29 32 34 34 33 34
9 7 7 8 8 6 3 4 5 10 12 9 8 9 13 17 15 9 8 11 11 9 10 10 9 10 11 11 12 14 14 13 15 15 17 20 21 21 21 21 21 21 20 21 22 24 25 25 25 25 24 24 25 25 25 23 23 24 27 29 30 30 31 30 30 29 29 30 30 31 30 29 28 28 28 28 28 27 27 27 28 30 33 34 35 36
12 11 10 12 13 9 5 6 10 12 11 6 8 11 14 18 21 17 13 12 11 11 12 11 9 8 8 8 10 13 13 13 15 16 16 16 16 16 17 16 15 14 14 15 16 18 19 19 20 22 23 24 25 25 25 24 23 22 24 27 29 30 30 29 27 27 27 28 29 31 31 30 30 30 30 30 30 30 29 29 29 30 30 32 35 37
11 12 12 13 14 12 8 7 11 13 11 6 6 8 10 14 20 22 19 17 15 12 10 8 6 6 7 8 10 13 13 13 14 15 15 14 15 15 15 13 11 11 11 11 13 13 14 14 15 17 20 22 23 24 25 25 24 23 23 24 27 29 30 28 27 25 25 25 27 29 31 31 31 31 31 32 31 31 31 31 31 31 31 31 32 33
10 11 13 15 17 18 15 12 12 15 15 13 13 13 14 18 22 24 23 22 21 18 16 14 11 8 7 8 11 13 13 13 13 13 12 11 13 15 14 11 10 10 9 10 11 11 12 12 12 14 16 19 20 22 23 23 24 24 24 23 25 27 29 28 27 24 23 23 24 26 29 31 32 33 33 32 31 30 31 31 31 32 31 30 29 29
Wind_Direction
201 206 213 215 215 215 215 213 214 219 219 220 227 230 223 217 223 233 235 231 215 199 193 197 205 208 212 197 179 181 186 196 205 203 204 209 215 216 214 209 202 192 185 191 202 205 209 210 209 209 206 208 210 211 213 211 209 209 207 206 204 201 207 212 208 206 205 201 199 200 196 193 194 193 193 194 193 193 189 181 187 190 184 185 184 193
207 214 218 216 215 215 217 217 214 216 218 224 232 241 240 224 216 222 238 240 214 197 195 198 202 209 211 203 193 196 206 210 206 203 209 218 221 217 218 218 205 192 190 193 197 201 209 211 210 210 210 212 213 211 215 215 210 211 209 208 207 204 207 212 211 209 207 202 200 201 198 195 196 197 195 197 199 201 199 187 190 196 189 190 191 196
211 220 220 215 216 216 216 219 217 216 219 225 233 242 248 243 234 229 238 236 205 192 198 199 202 210 212 211 209 209 216 213 206 208 217 221 221 217 218 220 213 207 204 199 197 200 207 210 209 209 210 214 217 214 217 217 213 213 212 210 209 206 208 211 211 211 208 203 201 200 200 199 200 202 200 202 204 208 209 192 190 203 199 196 198 202
212 224 222 212 214 215 215 216 216 218 221 225 230 237 244 245 249 248 231 212 199 198 202 198 205 212 212 218 221 216 213 211 210 211 216 223 226 225 224 222 216 213 211 205 199 199 206 210 208 208 208 212 217 217 216 216 215 213 213 212 210 207 209 212 210 211 209 203 201 200 199 199 203 206 205 206 206 209 213 199 192 206 208 202 205 208
214 226 223 210 211 215 216 215 214 217 220 224 225 229 239 241 246 251 239 215 202 200 199 196 205 210 209 216 216 211 207 208 213 210 211 221 227 229 229 226 221 218 218 213 205 204 207 210 210 208 207 210 215 217 214 214 216 215 212 212 212 210 210 213 211 211 211 204 201 201 199 199 201 204 205 206 207 211 214 205 197 208 213 208 209 211
218 223 224 213 209 211 216 216 214 215 218 222 223 223 231 239 244 247 254 244 204 186 191 196 202 207 209 214 210 205 201 200 205 209 215 222 220 220 224 227 226 221 221 224 217 213 213 212 212 210 208 210 213 214 211 211 216 219 216 211 213 212 211 214 213 211 212 207 204 203 201 202 202 204 206 207 211 217 219 211 202 210 217 212 212 214
221 218 219 219 211 210 215 217 215 214 218 222 223 222 224 233 242 244 254 259 218 185 191 196 200 204 204 211 213 207 203 201 203 210 220 223 217 213 216 224 228 221 218 225 227 221 218 215 213 210 207 208 211 210 209 210 215 219 220 216 213 213 212 214 215 214 213 209 206 206 205 206 207 206 209 213 217 220 224 220 207 210 219 218 215 217
222 217 215 218 215 212 214 217 215 212 218 224 222 222 224 229 237 240 248 262 246 202 193 194 200 205 200 203 209 210 211 211 210 214 220 220 218 215 213 218 223 222 223 230 234 227 220 218 216 210 203 201 206 208 207 207 210 216 222 221 217 216 214 213 215 216 216 213 208 208 208 209 210 209 208 215 220 221 223 224 215 210 219 222 217 219
219 217 213 212 216 216 215 217 215 212 217 222 220 219 224 228 234 240 245 257 262 232 196 192 197 204 206 203 204 209 214 217 217 217 218 218 218 216 216 220 220 222 229 234 237 236 226 220 218 211 200 195 198 201 200 200 204 212 220 224 221 220 218 214 214 216 217 216 212 212 213 212 214 214 211 213 220 222 219 223 220 208 213 222 220 218
221 223 217 211 217 219 220 220 216 215 217 219 219 218 223 226 231 239 244 252 262 260 218 198 196 198 212 208 206 207 211 216 218 218 220 221 219 217 222 226 222 221 227 231 234 238 231 225 222 213 203 198 197 194 192 195 199 206 213 220 222 221 221 218 215 216 217 218 216 215 215 215 216 219 217 213 218 222 217 218 221 207 205 219 222 219
225 229 224 217 218 219 222 224 219 217 217 216 218 219 225 229 228 232 237 246 259 260 247 229 207 201 206 210 211 211 211 215 215 214 220 224 221 219 225 228 222 221 225 227 229 229 226 225 224 219 210 204 201 197 194 194 196 202 208 214 219 221 222 221 218 216 216 218 219 218 217 219 219 221 222 218 219 224 220 218 223 214 204 214 224 222
227 228 226 221 220 218 220 223 220 216 215 213 214 217 225 233 229 225 224 231 247 250 246 252 231 216 218 216 217 218 217 216 214 212 215 221 222 220 223 225 221 221 223 225 227 223 220 219 219 219 217 211 208 205 198 195 196 200 204 208 214 218 221 222 221 217 215 217 220 219 218 220 220 222 224 221 221 227 227 222 224 224 212 209 220 227
226 227 225 224 222 216 216 220 216 209 209 211 211 212 216 222 222 219 213 216 226 236 240 249 249 240 243 242 233 226 219 216 218 215 213 218 223 223 222 221 219 220 220 223 225 224 223 221 214 213 216 214 211 209 203 197 195 197 200 203 207 213 218 223 223 218 216 216 218 220 219 220 221 222 224 224 222 225 228 226 225 226 221 207 211 225
223 227 226 225 223 214 212 216 211 200 202 207 208 208 204 192 201 213 207 206 219 226 232 241 252 252 247 247 245 234 219 217 221 217 211 216 221 223 222 220 220 219 221 228 226 223 224 223 216 211 212 213 210 210 209 203 197 195 198 200 202 207 214 220 223 221 218 216 217 219 219 220 222 222 223 224 222 221 225 227 226 223 223 211 201 211
219 223 221 220 220 215 211 212 209 202 200 204 208 209 205 202 202 190 196 204 196 212 218 224 235 248 244 241 245 244 221 216 225 217 205 212 221 221 216 215 218 219 225 232 229 224 223 221 220 215 213 215 212 210 211 207 199 195 197 199 201 206 211 216 220 221 219 217 215 217 218 218 220 221 222 223 221 219 221 225 226 221 218 214 200 197
226 229 225 219 217 217 213 210 208 205 203 203 207 212 210 207 208 213 218 211 202 179 207 212 219 230 243 245 244 243 228 220 234 226 207 207 216 216 209 208 216 221 225 231 233 230 223 216 219 218 216 216 213 211 211 205 199 196 196 197 199 206 212 214 218 220 219 217 215 215 216 215 216 218 219 220 219 217 218 221 223 219 215 212 205 198
228 233 231 222 217 216 215 211 206 205 204 199 202 211 212 207 209 218 220 203 197 209 224 221 230 230 233 241 234 229 231 230 232 225 210 209 213 211 208 209 215 221 226 233 237 234 225 218 219 219 218 216 211 210 208 202 200 199 196 193 194 201 208 212 214 218 219 218 215 214 215 214 215 217 217 219 219 217 217 219 219 217 212 208 206 205
240 243 231 220 218 213 210 210 208 209 209 200 201 208 206 201 212 221 221 186 186 213 221 218 229 228 222 228 226 220 225 228 225 216 209 213 215 209 209 211 214 219 228 236 237 232 228 224 221 221 219 213 209 208 204 198 197 199 196 193 194 199 205 208 209 213 217 220 219 216 215 215 215 217 218 218 219 219 220 219 216 215 211 206 205 207
243 257 235 219 218 211 206 207 206 209 212 208 203 201 199 196 205 213 215 191 190 208 212 212 220 224 220 222 226 223 219 219 223 219 212 213 213 207 207 208 210 217 227 234 235 227 219 215 214 218 219 211 207 205 205 203 200 198 196 194 196 200 204 207 208 209 213 217 221 221 219 219 217 218 219 218 218 219 220 220 217 215 213 209 206 207
239 255 254 225 215 208 206 206 204 205 208 212 208 197 198 205 205 204 207 208 199 192 209 215 215 218 224 226 226 226 220 212 215 218 212 209 210 208 207 205 208 217 224 229 231 220 207 203 205 210 215 212 207 205 207 209 203 197 194 192 195 199 203 207 209 210 211 214 219 222 222 222 221 220 220 220 221 221 221 222 220 218 215 213 212 212
236 242 254 244 217 201 203 206 204 202 201 207 211 197 192 202 208 206 208 212 218 254 190 206 225 223 227 232 232 229 220 207 207 212 209 205 208 212 212 212 216 220 222 223 225 216 204 199 201 205 209 207 205 206 208 208 204 200 195 190 192 198 204 207 209 210 211 212 215 218 221 222 222 222 222 222 223 223 223 223 223 222 219 217 218 220
270 245 241 251 232 201 202 206 206 203 199 203 211 203 191 193 196 196 201 207 215 238 239 213 261 241 233 241 241 231 213 200 202 208 208 203 207 214 215 217 221 219 217 221 222 215 202 196 200 207 208 205 204 205 206 205 205 203 197 189 190 198 203 206 208 210 211 213 215 217 219 221 222 224 224 225 225 225 224 224 224 223 223 222 222 225
315 257 232 244 246 219 207 206 205 204 200 202 210 209 197 193 194 195 188 192 204 224 243 254 270 250 257 260 237 220 203 195 198 203 208 207 207 214 215 215 216 212 212 220 221 213 203 201 207 211 212 212 210 206 202 200 199 197 192 188 193 201 203 203 206 209 211 214 216 217 219 220 222 223 225 226 226 226 225 225 225 225 225 226 225 227
287 232 226 240 244 245 230 209 202 202 199 201 209 212 204 196 197 201 197 189 194 208 226 251 265 241 314 334 205 199 188 187 193 196 203 205 203 211 215 211 209 208 209 216 217 210 205 206 208 208 210 214 214 210 205 201 198 195 192 191 195 202 205 205 207 209 212 214 215 217 219 220 222 223 224 225 225 225 226 226 226 227 227 227 227 229
305 254 266 258 239 246 242 208 191 192 196 201 206 211 212 203 197 200 201 196 196 204 210 218 254 239 270 69 140 165 170 176 187 190 192 197 200 210 215 207 203 205 208 212 210 206 205 206 204 204 206 210 211 208 206 203 201 201 200 198 197 199 203 206 209 213 215 216 216 217 219 219 221 222 223 225 225 224 225 226 227 227 228 229 229 230
310 276 280 290 252 230 243 201 180 184 191 201 204 207 212 211 200 195 199 205 202 198 204 213 233 228 219 145 133 141 156 172 177 179 184 193 200 207 211 205 202 205 210 212 208 205 207 206 204 202 203 207 206 199 197 198 198 201 205 205 200 197 200 204 209 215 218 220 219 219 220 220 221 222 222 223 224 224 225 226 227 228 228 230 232 234
311 281 268 275 271 253 274 316 195 187 187 195 204 205 208 213 210 196 195 208 208 188 196 210 214 195 187 183 166 148 154 173 171 172 184 197 198 198 201 202 202 206 209 209 207 206 206 205 206 205 205 209 208 199 195 196 198 202 206 207 203 198 199 204 209 214 218 221 223 222 222 222 223 224 224 224 224 224 224 225 227 228 229 231 234 238
339 306 275 273 274 259 260 301 220 193 188 188 199 205 205 209 214 205 196 202 209 192 191 204 201 178 171 187 195 185 174 180 177 177 187 196 192 193 202 207 205 203 201 201 202 204 204 205 210 212 212 214 214 208 205 203 205 209 209 209 208 203 202 204 209 214 217 219 223 223 223 224 225 226 227 226 226 225 224 225 226 229 231 232 235 239
352 333 304 293 283 257 244 248 343 201 190 186 194 205 206 204 210 213 202 198 205 206 194 197 195 175 165 180 196 184 168 173 180 183 185 186 188 195 204 202 199 196 192 194 198 201 202 205 210 216 218 217 212 208 208 205 204 209 208 207 208 207 206 207 210 216 218 219 221 221 222 224 226 227 227 227 227 227 226 226 227 230 232 233 235 237
357 339 344 333 304 264 238 223 248 284 196 183 191 202 208 204 205 212 211 198 200 208 204 199 196 185 178 191 196 179 170 169 172 178 182 182 186 192 188 184 189 190 187 191 196 197 198 200 206 216 222 218 210 205 205 203 199 201 201 199 202 206 208 209 211 216 220 221 220 219 220 223 224 226 227 226 227 227 227 228 228 230 232 232 233 233
3 342 356 5 341 274 233 214 223 265 251 185 187 199 210 210 202 207 214 206 195 200 204 202 200 197 193 179 156 156 163 162 153 149 153 158 163 171 173 174 179 182 183 188 192 188 190 199 208 217 219 216 214 213 213 210 203 201 200 198 198 203 208 212 214 216 220 223 222 218 219 221 222 224 227 227 227 226 226 228 228 229 231 231 230 229
3 351 359 8 357 307 221 206 224 278 269 244 210 196 204 212 204 202 211 212 198 193 197 191 176 166 164 155 142 137 140 141 138 132 131 132 137 155 168 171 173 178 182 186 187 188 197 207 213 216 217 217 217 217 219 216 209 206 204 203 203 205 211 218 222 223 223 225 225 221 219 221 222 222 224 226 227 225 224 226 227 228 229 229 227 226
354 347 351 357 347 333 211 203 235 292 285 257 244 195 191 208 208 200 205 212 204 193 194 185 159 147 151 153 151 145 136 128 131 135 137 135 134 146 160 167 169 173 180 187 194 200 206 211 213 218 224 225 220 216 216 216 213 211 208 207 209 211 214 219 227 232 230 228 229 227 222 221 223 223 223 224 226 226 224 224 225 226 226 226 225 224
347 340 341 346 333 329 316 207 245 285 274 240 213 184 183 211 242 198 198 206 207 198 195 186 165 160 166 167 162 159 150 135 130 137 143 141 134 135 145 152 152 154 163 176 189 197 202 206 210 215 221 222 221 220 218 216 215 213 212 211 212 214 216 220 226 233 234 230 229 230 226 223 223 224 224 223 224 226 226 224 225 226 226 226 225 224
335 334 333 337 326 321 328 206 242 285 261 221 192 174 168 35 340 181 184 196 211 211 200 189 175 168 170 172 171 164 155 145 137 141 149 148 137 131 135 139 142 146 157 165 171 178 184 192 195 195 196 199 205 212 214 215 214 212 212 213 213 215 217 220 224 228 228 223 220 224 227 226 225 225 225 224 224 225 227 227 227 227 228 229 228 229
316 318 326 334 335 337 342 221 212 276 250 211 199 182 144 3 310 153 150 158 179 194 192 186 179 169 162 163 165 160 156 148 133 136 150 160 159 149 144 149 155 160 164 165 166 171 177 185 191 193 194 193 193 194 195 202 210 210 211 211 212 216 218 221 226 227 224 219 217 219 223 226 229 228 225 225 225 226 227 228 228 229 230 231 233 235
304 296 314 329 343 356 343 299 239 248 234 206 271 297 36 15 262 144 103 74 104 163 172 176 176 175 169 162 156 157 162 155 136 133 148 165 175 175 167 166 175 183 179 172 173 177 180 185 193 199 200 198 198 197 192 190 196 201 206 209 212 215 217 220 226 228 226 222 220 222 225 228 234 236 231 228 227 227 228 229 229 230 231 233 236 237
292 284 302 313 310 335 339 319 244 220 301 8 7 314 155 67 188 165 96 72 111 147 134 143 158 162 165 167 162 158 159 150 139 144 155 164 176 183 183 180 183 191 194 188 187 187 178 176 182 194 199 197 202 210 208 204 201 199 200 205 209 214 219 222 226 231 231 228 225 228 230 229 232 240 242 237 231 229 229 230 231 232 233 235 237 239
281 281 291 291 288 310 328 325 305 295 345 2 2 210 169 90 174 177 104 64 79 105 112 125 134 137 150 161 163 162 161 153 150 157 164 168 175 180 186 192 190 190 196 198 200 204 199 195 203 213 209 202 207 220 226 223 219 213 208 206 207 211 218 225 232 237 239 236 233 234 235 233 231 234 238 238 235 231 229 229 231 232 234 236 238 240
267 267 271 271 281 301 308 307 338 17 7 357 332 215 195 172 176 163 103 48 73 97 111 126 127 129 143 155 159 163 162 160 162 168 172 176 180 181 186 193 195 194 198 202 206 212 215 217 224 228 225 217 216 223 228 228 228 226 221 216 213 214 218 224 231 236 240 239 238 238 238 236 234 233 232 231 233 232 229 228 229 231 233 236 238 240
252 252 259 262 275 305 312 304 332 4 359 359 7 188 195 193 153 115 98 71 85 99 115 130 129 129 142 153 157 157 156 161 168 173 175 175 178 185 189 192 197 200 205 208 209 211 213 214 221 227 228 224 221 223 225 225 226 229 230 228 225 223 222 222 224 229 234 236 236 237 237 237 235 233 230 227 229 232 231 229 229 231 233 235 238 240
239 241 252 259 268 294 314 313 324 341 334 339 356 347 190 173 111 88 101 116 115 121 135 138 134 129 138 152 157 155 156 165 171 171 173 175 179 189 192 192 197 205 212 214 213 213 214 215 221 228 228 225 223 222 222 222 223 227 231 233 233 231 229 226 225 227 232 235 237 237 238 237 236 234 231 226 225 229 231 231 232 232 233 235 238 240
235 242 253 261 271 297 328 345 358 351 334 328 344 18 106 129 108 97 113 132 143 151 151 146 142 135 136 150 160 163 165 170 170 167 168 175 185 195 197 197 203 214 222 222 219 219 221 222 224 229 229 225 223 222 220 220 220 223 227 232 235 236 235 234 231 231 233 236 238 240 241 240 239 239 237 230 225 226 229 232 234 235 236 237 239 241
200 293 279 273 324 352 15 44 62 43 3 355 35 57 57 65 98 128 136 141 154 161 161 156 152 148 146 152 161 168 172 173 174 175 177 183 193 199 202 209 221 232 236 235 230 228 231 232 231 231 231 228 225 224 224 221 219 221 224 229 234 238 240 240 238 237 236 238 239 240 242 243 243 243 243 239 232 229 228 229 232 236 238 238 240 242
18 357 310 287 18 33 76 84 63 57 42 21 65 82 73 55 85 165 155 151 158 162 162 163 162 161 162 165 169 176 180 180 181 183 186 194 204 214 225 240 251 255 252 246 240 238 238 239 238 235 234 231 228 228 229 226 224 224 224 226 231 236 240 242 243 242 241 241 241 241 241 243 244 243 244 244 242 239 235 231 230 234 237 239 241 243
5 334 294 287 335 288 185 143 27 23 61 53 60 108 101 75 166 171 171 168 162 157 155 160 168 172 173 176 181 186 190 191 195 198 202 210 221 234 247 255 260 259 253 245 243 244 245 246 244 238 235 233 231 230 230 230 230 228 227 228 230 233 237 240 242 243 243 242 243 242 242 244 245 244 244 245 247 248 245 238 234 235 238 241 244 246
348 289 270 285 301 264 215 178 246 268 255 261 323 315 291 276 250 197 184 184 175 157 148 147 154 172 182 185 189 193 197 201 206 214 222 230 239 246 250 252 255 255 252 248 248 249 253 255 252 244 238 234 232 232 232 232 233 231 230 229 229 231 235 238 240 242 242 242 242 243 243 244 247 247 247 247 247 249 250 247 242 240 241 244 246 249
335 301 285 296 301 293 246 184 214 248 252 266 299 301 285 275 265 242 210 201 193 178 168 159 151 162 177 183 186 192 198 202 206 214 224 231 238 243 245 247 251 254 255 255 254 256 259 261 258 251 244 238 234 234 234 235 236 235 233 231 230 230 234 237 240 242 242 241 242 242 241 243 246 248 249 250 248 248 251 254 250 246 244 245 248 251
325 319 316 307 298 289 262 240 248 242 223 235 293 278 262 266 267 255 240 229 217 197 183 174 164 167 176 178 183 189 192 194 199 205 213 218 223 227 233 239 245 249 252 253 253 256 259 260 258 255 249 242 239 238 237 238 238 238 237 234 232 231 234 237 240 242 244 244 243 242 241 240 242 245 247 248 248 248 251 254 255 253 250 248 248 250
317 308 305 297 285 275 260 255 267 257 229 224 285 269 244 259 267 261 255 253 248 236 219 206 197 193 193 189 187 190 192 191 193 199 205 207 208 212 219 228 234 240 243 245 248 252 255 257 258 255 250 246 243 241 240 241 242 242 242 240 236 235 236 238 240 243 246 248 246 244 242 240 240 242 244 246 247 249 251 253 254 255 255 254 253 254
305 292 287 285 277 265 251 240 247 255 248 240 242 241 240 247 254 255 255 256 257 257 255 254 253 252 246 227 207 201 201 200 200 205 210 212 212 213 218 230 242 247 248 250 255 260 264 266 263 257 253 250 246 244 243 243 245 246 245 244 242 239 237 238 239 241 244 248 248 246 244 242 241 241 243 245 248 250 251 253 253 254 255 257 257 258